User: anonymous   Login
Location: Mentone
(34.5413°N, 85.5351°W)
Time: 21:09:34
(UTC-05:00)
Language:

Centaur AC-72 - Orbit

View from above orbital plane
View from above orbital plane
View from above satellite
View from above satellite

Ground track
Ground track

The orbit data is extracted from the following two-line orbital elements,

1 21907U 92013B   15146.53328431 -.00000128  00000-0  00000+0 0  9991
2 21907 018.9086 150.1618 6959984 073.4579 008.1637 02.25607444191291
Epoch (UTC): 26 May 2015 12:47:55
Eccentricity: 0.6959984
inclination: 18.9086°
perigee height: 1087 km
apogee height: 35269 km
right ascension of ascending node: 150.1618°
argument of perigee: 73.4579°
revolutions per day: 2.25607444
mean anomaly at epoch: 8.1637°
orbit number at epoch: 19129

The dashed part of the orbit path shows where the satellite is in the earth's shadow,  

DLR